Time[GMT],dominant_wave_period_2[s](0m),significant_wave_height_2[m](0m)
2013-05-24 13:00,5.33,1.56
2013-05-24 13:30,6.40,1.54
2013-05-24 14:00,6.40,1.59
2013-05-24 14:30,5.33,1.64
2013-05-24 15:00,6.40,1.51
2013-05-24 15:30,6.40,1.56
2013-05-24 16:00,4.57,1.57
2013-05-24 16:30,6.40,1.54
2013-05-24 17:00,6.40,1.49
2013-05-24 17:30,8.00,1.54
2013-05-24 18:00,6.40,1.54
2013-05-24 18:30,6.40,1.62
2013-05-24 19:00,5.33,1.66
2013-05-24 19:30,6.40,1.48
2013-05-24 20:00,6.40,1.56
2013-05-24 20:30,8.00,1.58
2013-05-24 21:00,6.40,1.62
2013-05-24 21:30,6.40,1.53
2013-05-24 22:00,6.40,1.57
2013-05-24 22:30,6.40,1.57
2013-05-24 23:00,8.00,1.56
2013-05-24 23:30,6.40,1.54
2013-05-25 00:00,8.00,1.43
2013-05-25 00:30,6.40,1.40
2013-05-25 01:00,6.40,1.48
2013-05-25 01:30,6.40,1.51
2013-05-25 02:00,6.40,1.59
2013-05-25 02:30,6.40,1.46
2013-05-25 03:00,6.40,1.48
2013-05-25 03:30,6.40,1.64
2013-05-25 04:00,6.40,1.54
2013-05-25 04:30,6.40,1.49
2013-05-25 05:00,6.40,1.51
2013-05-25 05:30,6.40,1.50
2013-05-25 06:00,4.57,1.53
2013-05-25 06:30,6.40,1.50
2013-05-25 07:00,6.40,1.60
2013-05-25 07:30,6.40,1.40
2013-05-25 08:00,6.40,1.37
2013-05-25 08:30,6.40,1.21
2013-05-25 09:00,6.40,1.25
2013-05-25 09:30,6.40,1.15
2013-05-25 10:00,6.40,1.17
2013-05-25 10:30,6.40,1.16
2013-05-25 11:00,6.40,1.14
2013-05-25 11:30,6.40,1.31
2013-05-25 12:00,6.40,1.24
2013-05-25 12:30,6.40,1.19
2013-05-25 13:00,6.40,1.22
2013-05-25 13:30,6.40,1.43
2013-05-25 14:00,6.40,1.33
2013-05-25 14:30,5.33,1.46
2013-05-25 15:00,5.33,1.40
2013-05-25 15:30,5.33,1.47
2013-05-25 16:00,5.33,1.54
2013-05-25 16:30,6.40,1.41
2013-05-25 17:00,5.33,1.46
2013-05-25 17:30,6.40,1.32
2013-05-25 18:00,6.40,1.27
2013-05-25 18:30,6.40,1.25
2013-05-25 19:00,5.33,1.42
2013-05-25 19:30,8.00,1.46
2013-05-25 20:00,6.40,1.29
2013-05-25 20:30,6.40,1.31
2013-05-25 21:00,6.40,1.12
2013-05-25 21:30,6.40,0.98
2013-05-25 22:00,6.40,0.99
2013-05-25 22:30,6.40,1.00
2013-05-25 23:00,6.40,1.01
2013-05-25 23:30,6.40,0.96
2013-05-26 00:00,6.40,1.04
2013-05-26 00:30,6.40,1.02
2013-05-26 01:00,6.40,1.05
2013-05-26 01:30,6.40,1.03
2013-05-26 02:00,6.40,1.17
2013-05-26 02:30,6.40,1.12
2013-05-26 03:00,6.40,1.09
2013-05-26 03:30,5.33,1.15
2013-05-26 04:00,6.40,1.17
2013-05-26 04:30,6.40,1.21
2013-05-26 05:00,6.40,1.25
2013-05-26 05:30,4.57,1.12
2013-05-26 06:00,5.33,1.23
2013-05-26 06:30,4.57,1.21
2013-05-26 07:00,5.33,1.26
2013-05-26 07:30,5.33,1.19
2013-05-26 08:00,6.40,1.17
2013-05-26 08:30,4.57,1.04
2013-05-26 09:00,6.40,1.11
2013-05-26 09:30,6.40,1.10
2013-05-26 10:00,6.40,0.99
2013-05-26 10:30,6.40,1.09
2013-05-26 11:00,4.00,1.01
2013-05-26 11:30,6.40,1.18
2013-05-26 12:00,5.33,1.15
2013-05-26 12:30,5.33,1.18
2013-05-26 13:00,6.40,1.11
2013-05-26 13:30,5.33,1.11
2013-05-26 14:00,5.33,1.23
2013-05-26 14:30,6.40,1.25
2013-05-26 15:00,5.33,1.36
2013-05-26 15:30,4.57,1.33
2013-05-26 16:00,5.33,1.37
2013-05-26 16:30,5.33,1.45
2013-05-26 17:00,4.57,1.47
2013-05-26 17:30,5.33,1.54
2013-05-26 18:00,5.33,1.47
2013-05-26 18:30,5.33,1.38
2013-05-26 19:00,5.33,1.44
2013-05-26 19:30,4.57,1.40
2013-05-26 20:00,5.33,1.32
2013-05-26 20:30,5.33,1.30
2013-05-26 21:00,6.40,1.16
2013-05-26 21:30,5.33,1.20
2013-05-26 22:00,5.33,1.18
2013-05-26 22:30,6.40,1.22
2013-05-26 23:00,6.40,1.22
2013-05-26 23:30,6.40,1.11
2013-05-27 00:00,6.40,1.25
2013-05-27 00:30,6.40,1.16
2013-05-27 01:00,6.40,1.19
2013-05-27 01:30,6.40,1.12
2013-05-27 02:00,6.40,1.18
2013-05-27 02:30,6.40,1.37
2013-05-27 03:00,5.33,1.36
2013-05-27 03:30,5.33,1.29
2013-05-27 04:00,5.33,1.44
2013-05-27 04:30,6.40,1.39
2013-05-27 05:00,5.33,1.35
2013-05-27 05:30,5.33,1.44
2013-05-27 06:00,6.40,1.48
2013-05-27 06:30,5.33,1.43
2013-05-27 07:00,5.33,1.55
2013-05-27 07:30,6.40,1.44
2013-05-27 08:00,6.40,1.44
2013-05-27 08:30,6.40,1.32
2013-05-27 09:00,6.40,1.35
2013-05-27 09:30,6.40,1.24
2013-05-27 10:00,6.40,1.23
2013-05-27 10:30,6.40,1.17
2013-05-27 11:00,6.40,1.14
2013-05-27 11:30,6.40,1.18
2013-05-27 12:00,8.00,1.31
2013-05-27 12:30,6.40,1.27
2013-05-27 13:00,6.40,1.34
2013-05-27 13:30,6.40,1.34
2013-05-27 14:00,6.40,1.54
2013-05-27 14:30,6.40,1.33
2013-05-27 15:00,6.40,1.69
2013-05-27 15:30,6.40,1.78
2013-05-27 16:00,6.40,1.69
2013-05-27 16:30,5.33,1.73
2013-05-27 17:00,6.40,1.80
2013-05-27 17:30,6.40,1.66
2013-05-27 18:00,6.40,1.79
2013-05-27 18:30,8.00,1.77
2013-05-27 19:00,8.00,1.78
2013-05-27 19:30,8.00,1.68
2013-05-27 20:00,6.40,1.72
2013-05-27 20:30,6.40,1.57
2013-05-27 21:00,6.40,1.49
2013-05-27 21:30,6.40,1.71
2013-05-27 22:00,4.57,1.60
2013-05-27 22:30,6.40,1.60
2013-05-27 23:00,4.57,1.60
2013-05-27 23:30,6.40,1.53
2013-05-28 00:00,6.40,1.50
2013-05-28 00:30,5.33,1.48
2013-05-28 01:00,6.40,1.45
2013-05-28 01:30,6.40,1.45
2013-05-28 02:00,6.40,1.41
2013-05-28 02:30,6.40,1.50
2013-05-28 03:00,6.40,1.62
2013-05-28 03:30,6.40,1.59
2013-05-28 04:00,6.40,1.56
2013-05-28 04:30,6.40,1.67
2013-05-28 05:00,6.40,1.75
2013-05-28 05:30,6.40,1.55
2013-05-28 06:00,6.40,1.73
2013-05-28 06:30,6.40,1.46
2013-05-28 07:00,6.40,1.53
2013-05-28 07:30,6.40,1.43
2013-05-28 08:00,6.40,1.47
2013-05-28 08:30,6.40,1.39
2013-05-28 09:00,6.40,1.44
2013-05-28 09:30,6.40,1.52
2013-05-28 10:00,6.40,1.39
2013-05-28 10:30,6.40,1.23
2013-05-28 11:00,6.40,1.29
2013-05-28 11:30,6.40,1.33
2013-05-28 12:00,6.40,1.40
2013-05-28 12:30,6.40,1.25
2013-05-28 13:00,6.40,1.29
2013-05-28 13:30,8.00,1.40
2013-05-28 14:00,6.40,1.47
2013-05-28 14:30,6.40,1.41
2013-05-28 15:00,8.00,1.59
2013-05-28 15:30,6.40,1.63
2013-05-28 16:00,8.00,1.75
2013-05-28 16:30,8.00,1.76
2013-05-28 17:00,8.00,1.86
2013-05-28 17:30,6.40,1.78
2013-05-28 18:00,8.00,1.73
2013-05-28 18:30,6.40,1.74
2013-05-28 19:00,8.00,1.73
2013-05-28 19:30,8.00,1.86
2013-05-28 20:00,6.40,1.77
2013-05-28 20:30,8.00,1.81
2013-05-28 21:00,8.00,1.95
2013-05-28 21:30,8.00,1.80
2013-05-28 22:00,6.40,1.77
2013-05-28 22:30,8.00,1.64
2013-05-28 23:00,6.40,1.65
2013-05-28 23:30,8.00,1.73
2013-05-29 00:00,8.00,1.64
2013-05-29 00:30,8.00,1.59
2013-05-29 01:00,8.00,1.60
2013-05-29 01:30,8.00,1.62
2013-05-29 02:00,6.40,1.61
2013-05-29 02:30,8.00,1.68
2013-05-29 03:00,8.00,1.69
2013-05-29 03:30,6.40,1.57
2013-05-29 04:00,6.40,1.56
2013-05-29 04:30,6.40,1.76
2013-05-29 05:00,6.40,1.86
2013-05-29 05:30,6.40,1.77
2013-05-29 06:00,6.40,1.80
2013-05-29 06:30,6.40,1.76
2013-05-29 07:00,6.40,1.72
2013-05-29 07:30,6.40,1.47
2013-05-29 08:00,6.40,1.59
2013-05-29 08:30,6.40,1.65
2013-05-29 09:00,6.40,1.72
2013-05-29 09:30,6.40,1.68
2013-05-29 10:00,6.40,1.76
2013-05-29 10:30,6.40,1.66
2013-05-29 11:00,6.40,1.80
2013-05-29 11:30,8.00,1.75
2013-05-29 12:00,6.40,1.66
2013-05-29 12:30,6.40,1.62
2013-05-29 13:00,8.00,1.49
2013-05-29 13:30,8.00,1.68
2013-05-29 14:00,8.00,1.63
2013-05-29 14:30,6.40,1.80
2013-05-29 15:00,8.00,1.89
2013-05-29 15:30,8.00,1.97
2013-05-29 16:00,6.40,1.90
2013-05-29 16:30,8.00,1.83
2013-05-29 17:00,8.00,1.93
2013-05-29 17:30,8.00,1.99
2013-05-29 18:00,6.40,1.96
2013-05-29 18:30,6.40,1.81
2013-05-29 19:00,8.00,2.04
2013-05-29 19:30,8.00,2.07
2013-05-29 20:00,6.40,1.84
2013-05-29 20:30,8.00,1.79
2013-05-29 21:00,8.00,1.89
2013-05-29 21:30,6.40,1.86
2013-05-29 22:00,6.40,1.81
2013-05-29 22:30,6.40,1.77
2013-05-29 23:00,6.40,1.91
2013-05-29 23:30,8.00,1.85
2013-05-30 00:00,8.00,1.68
2013-05-30 00:30,8.00,1.62
2013-05-30 01:00,6.40,1.55
2013-05-30 01:30,8.00,1.55
2013-05-30 02:00,6.40,1.54
2013-05-30 02:30,8.00,1.51
2013-05-30 03:00,8.00,1.61
2013-05-30 03:30,8.00,1.59
2013-05-30 04:00,8.00,1.59
2013-05-30 04:30,6.40,1.76
2013-05-30 05:00,6.40,1.78
2013-05-30 05:30,8.00,1.87
2013-05-30 06:00,6.40,1.80
2013-05-30 06:30,6.40,1.95
2013-05-30 07:00,6.40,1.83
2013-05-30 07:30,8.00,2.00
2013-05-30 08:00,8.00,1.80
2013-05-30 08:30,6.40,1.87
2013-05-30 09:00,6.40,1.88
2013-05-30 09:30,8.00,1.80
2013-05-30 10:00,6.40,1.70
2013-05-30 10:30,6.40,1.67
2013-05-30 11:00,6.40,1.56
2013-05-30 11:30,6.40,1.64
2013-05-30 12:00,6.40,1.62
2013-05-30 12:30,6.40,1.63
2013-05-30 13:00,8.00,1.62
2013-05-30 13:30,6.40,1.60
2013-05-30 14:00,8.00,1.61
2013-05-30 14:30,8.00,1.66
2013-05-30 15:00,8.00,1.72
2013-05-30 15:30,6.40,1.75
2013-05-30 16:00,8.00,1.69
2013-05-30 16:30,8.00,1.80
2013-05-30 17:00,6.40,1.93
2013-05-30 17:30,6.40,1.87
2013-05-30 18:00,5.33,1.90
2013-05-30 18:30,6.40,1.77
2013-05-30 19:00,6.40,1.99
2013-05-30 19:30,8.00,1.92
2013-05-30 20:00,8.00,1.83
2013-05-30 20:30,8.00,1.90
2013-05-30 21:00,8.00,1.88
2013-05-30 21:30,8.00,1.95
2013-05-30 22:00,6.40,1.85
2013-05-30 22:30,8.00,1.83
2013-05-30 23:00,6.40,1.85
2013-05-30 23:30,5.33,1.86
2013-05-31 00:00,8.00,1.85
2013-05-31 00:30,6.40,1.91
2013-05-31 01:00,8.00,1.77
2013-05-31 01:30,8.00,1.64
2013-05-31 02:00,8.00,1.62
2013-05-31 02:30,8.00,1.53
2013-05-31 03:00,8.00,1.44
2013-05-31 03:30,6.40,1.39
2013-05-31 04:00,8.00,1.69
2013-05-31 04:30,8.00,1.59
2013-05-31 05:00,5.33,1.59
2013-05-31 05:30,6.40,1.81
2013-05-31 06:00,5.33,1.81
2013-05-31 06:30,6.40,1.71
2013-05-31 07:00,8.00,1.78
2013-05-31 07:30,8.00,1.92
2013-05-31 08:00,8.00,1.78
2013-05-31 08:30,8.00,1.79
2013-05-31 09:00,6.40,1.98
2013-05-31 09:30,6.40,1.86
2013-05-31 10:00,6.40,1.75
2013-05-31 10:30,6.40,1.83
2013-05-31 11:00,6.40,1.84
2013-05-31 11:30,6.40,1.70
2013-05-31 12:00,6.40,1.73
2013-05-31 12:30,6.40,1.59
2013-05-31 13:00,8.00,1.71
2013-05-31 13:30,6.40,1.61
2013-05-31 14:00,8.00,1.68
2013-05-31 14:30,6.40,1.65
2013-05-31 15:00,8.00,1.66
2013-05-31 15:30,8.00,1.55
2013-05-31 16:00,6.40,1.69
2013-05-31 16:30,6.40,1.68
2013-05-31 17:00,8.00,1.69
2013-05-31 17:30,8.00,1.69
2013-05-31 18:00,8.00,1.77
2013-05-31 18:30,6.40,1.75
2013-05-31 19:00,8.00,1.88
2013-05-31 19:30,8.00,1.78
2013-05-31 20:00,8.00,1.88
2013-05-31 20:30,8.00,1.89
2013-05-31 21:00,8.00,1.87
2013-05-31 21:30,6.40,1.79
2013-05-31 22:00,6.40,1.84
2013-05-31 22:30,6.40,1.74
2013-05-31 23:00,6.40,1.96
2013-05-31 23:30,6.40,1.88
2013-06-01 00:00,6.40,1.69
2013-06-01 00:30,6.40,1.69
2013-06-01 01:00,8.00,1.75
2013-06-01 01:30,8.00,1.75
2013-06-01 02:00,8.00,1.90
2013-06-01 02:30,8.00,1.66
2013-06-01 03:00,8.00,1.69
2013-06-01 03:30,8.00,1.74
2013-06-01 04:00,8.00,1.64
2013-06-01 04:30,8.00,1.62
2013-06-01 05:00,8.00,1.64
2013-06-01 05:30,8.00,1.65
2013-06-01 06:00,8.00,1.66
2013-06-01 06:30,8.00,1.61
2013-06-01 07:00,8.00,1.69
2013-06-01 07:30,6.40,1.68
2013-06-01 08:00,8.00,1.69
2013-06-01 08:30,6.40,1.62
2013-06-01 09:00,6.40,1.77
2013-06-01 09:30,6.40,1.70
2013-06-01 10:00,6.40,1.71
2013-06-01 10:30,6.40,1.82
2013-06-01 11:00,6.40,1.74
2013-06-01 11:30,6.40,1.71
2013-06-01 12:00,6.40,1.69
2013-06-01 12:30,8.00,1.75
2013-06-01 13:00,6.40,1.70
2013-06-01 13:30,6.40,1.81
2013-06-01 14:00,5.33,1.91
2013-06-01 14:30,6.40,1.94
2013-06-01 15:00,6.40,1.81
2013-06-01 15:30,6.40,1.69
2013-06-01 16:00,6.40,1.61
2013-06-01 16:30,6.40,1.48
2013-06-01 17:00,6.40,1.61
2013-06-01 17:30,6.40,1.46
2013-06-01 18:00,8.00,1.60
2013-06-01 18:30,8.00,1.60
2013-06-01 19:00,6.40,1.53
2013-06-01 19:30,8.00,1.69
2013-06-01 20:00,8.00,1.63
2013-06-01 20:30,6.40,1.52
2013-06-01 21:00,6.40,1.69
2013-06-01 21:30,6.40,1.70
2013-06-01 22:00,6.40,1.72
2013-06-01 22:30,6.40,1.53
2013-06-01 23:00,6.40,1.62
2013-06-01 23:30,5.33,1.41
2013-06-02 00:00,6.40,1.61
2013-06-02 00:30,6.40,1.48
2013-06-02 01:00,6.40,1.55
2013-06-02 01:30,8.00,1.56
2013-06-02 02:00,4.57,1.05
2013-06-02 02:30,6.40,1.54
2013-06-02 03:00,6.40,1.60
2013-06-02 03:30,6.40,1.31
2013-06-02 04:00,8.00,1.43
2013-06-02 04:30,6.40,1.33
2013-06-02 05:00,8.00,1.33
2013-06-02 05:30,8.00,1.27
2013-06-02 06:00,6.40,1.28
2013-06-02 06:30,8.00,1.19
2013-06-02 07:00,6.40,1.37
2013-06-02 07:30,8.00,1.44
2013-06-02 08:00,5.33,1.42
2013-06-02 08:30,6.40,1.45
2013-06-02 09:00,6.40,1.44
2013-06-02 09:30,6.40,1.51
2013-06-02 10:00,6.40,1.53
2013-06-02 10:30,6.40,1.59
2013-06-02 11:00,6.40,1.41
2013-06-02 11:30,6.40,1.47
2013-06-02 12:00,6.40,1.69
2013-06-02 12:30,6.40,1.52
2013-06-02 13:00,2.29,0.31
2013-06-02 13:30,6.40,1.53
2013-06-02 14:00,6.40,1.55
2013-06-02 14:30,5.33,1.51
2013-06-02 15:00,6.40,1.53
2013-06-02 15:30,6.40,1.63
2013-06-02 16:00,6.40,1.70
2013-06-02 16:30,6.40,1.63
2013-06-02 17:00,6.40,1.63
2013-06-02 17:30,6.40,1.60
2013-06-02 18:00,6.40,1.51
2013-06-02 18:30,6.40,1.74
2013-06-02 19:00,6.40,1.56
2013-06-02 19:30,6.40,1.64
2013-06-02 20:00,6.40,1.66
2013-06-02 20:30,6.40,1.46
2013-06-02 21:00,5.33,1.68
2013-06-02 21:30,5.33,1.64
2013-06-02 22:00,6.40,1.62
2013-06-02 22:30,5.33,1.60
2013-06-02 23:00,6.40,1.60
2013-06-02 23:30,6.40,1.71
2013-06-03 00:00,6.40,1.72
2013-06-03 00:30,6.40,1.69
2013-06-03 01:00,6.40,1.60
2013-06-03 01:30,6.40,1.54
2013-06-03 02:00,6.40,1.41
2013-06-03 02:30,6.40,1.33
2013-06-03 03:00,6.40,1.41
2013-06-03 03:30,6.40,1.49
2013-06-03 04:00,6.40,1.52
2013-06-03 04:30,6.40,1.38
2013-06-03 05:00,6.40,1.28
2013-06-03 05:30,6.40,1.43
2013-06-03 06:00,8.00,1.43
2013-06-03 06:30,6.40,1.43
2013-06-03 07:00,8.00,1.36
2013-06-03 07:30,6.40,1.29
2013-06-03 08:00,6.40,1.26
2013-06-03 08:30,6.40,1.28
2013-06-03 09:00,6.40,1.29
2013-06-03 09:30,6.40,1.30
2013-06-03 10:00,6.40,1.31
2013-06-03 10:30,6.40,1.18
2013-06-03 11:00,6.40,1.37
2013-06-03 11:30,8.00,1.43
2013-06-03 12:00,6.40,1.44
2013-06-03 12:30,6.40,1.44
2013-06-03 13:00,6.40,1.45
2013-06-03 13:30,6.40,1.55
2013-06-03 14:00,6.40,1.53
2013-06-03 14:30,6.40,1.65
2013-06-03 15:00,6.40,1.48
2013-06-03 15:30,6.40,1.63
2013-06-03 16:00,6.40,1.52
2013-06-03 16:30,6.40,1.46
2013-06-03 17:00,6.40,1.62
2013-06-03 17:30,6.40,1.58
2013-06-03 18:00,5.33,1.46
2013-06-03 18:30,6.40,1.60
2013-06-03 19:00,6.40,1.50
2013-06-03 19:30,6.40,1.56
2013-06-03 20:00,6.40,1.57
2013-06-03 20:30,6.40,1.74
2013-06-03 21:00,6.40,1.64
2013-06-03 21:30,6.40,1.72
2013-06-03 22:00,6.40,1.64
2013-06-03 22:30,6.40,1.70
2013-06-03 23:00,6.40,1.86
2013-06-03 23:30,6.40,1.99
2013-06-04 00:00,6.40,2.04
2013-06-04 00:30,5.33,1.96
2013-06-04 01:00,6.40,1.98
2013-06-04 01:30,6.40,1.96
2013-06-04 02:00,6.40,1.72
2013-06-04 02:30,6.40,1.80
2013-06-04 03:00,6.40,1.62
2013-06-04 03:30,8.00,1.73
2013-06-04 04:00,6.40,1.49
2013-06-04 04:30,6.40,1.71
2013-06-04 05:00,6.40,1.53
2013-06-04 05:30,6.40,1.58
2013-06-04 06:00,6.40,1.57
2013-06-04 06:30,6.40,1.47
2013-06-04 07:00,6.40,1.58
2013-06-04 07:30,6.40,1.57
2013-06-04 08:00,6.40,1.53
2013-06-04 08:30,6.40,1.57
2013-06-04 09:00,6.40,1.62
2013-06-04 09:30,6.40,1.47
2013-06-04 10:00,6.40,1.49
2013-06-04 10:30,6.40,1.32
2013-06-04 11:00,6.40,1.56
2013-06-04 11:30,6.40,1.48
2013-06-04 12:00,6.40,1.29
2013-06-04 12:30,6.40,1.39
2013-06-04 13:00,6.40,1.37
2013-06-04 13:30,6.40,1.48
2013-06-04 14:00,6.40,1.67
2013-06-04 14:30,5.33,1.76
2013-06-04 15:00,5.33,1.70
2013-06-04 15:30,5.33,1.66
2013-06-04 16:00,6.40,1.58
2013-06-04 16:30,6.40,1.60
2013-06-04 17:00,6.40,1.47
2013-06-04 17:30,6.40,1.63
2013-06-04 18:00,6.40,1.45
2013-06-04 18:30,6.40,1.48
2013-06-04 19:00,6.40,1.41
2013-06-04 19:30,5.33,1.43
2013-06-04 20:00,5.33,1.49
2013-06-04 20:30,6.40,1.54
2013-06-04 21:00,6.40,1.34
2013-06-04 21:30,6.40,1.42
2013-06-04 22:00,6.40,1.39
2013-06-04 22:30,6.40,1.55
2013-06-04 23:00,6.40,1.53
2013-06-04 23:30,6.40,1.67
2013-06-05 00:00,6.40,1.60
2013-06-05 00:30,6.40,1.68
2013-06-05 01:00,6.40,1.56
2013-06-05 01:30,6.40,1.54
2013-06-05 02:00,6.40,1.70
2013-06-05 02:30,6.40,1.65
2013-06-05 03:00,6.40,1.64
2013-06-05 03:30,6.40,1.66
2013-06-05 04:00,6.40,1.58
2013-06-05 04:30,6.40,1.45
2013-06-05 05:00,6.40,1.45
2013-06-05 05:30,6.40,1.54
2013-06-05 06:00,6.40,1.64
2013-06-05 06:30,6.40,1.51
2013-06-05 07:00,6.40,1.64
2013-06-05 07:30,6.40,1.59
2013-06-05 08:00,6.40,1.70
2013-06-05 08:30,6.40,1.60
2013-06-05 09:00,6.40,1.60
2013-06-05 09:30,6.40,1.67
2013-06-05 10:00,6.40,1.52
2013-06-05 10:30,6.40,1.66
2013-06-05 11:00,6.40,1.62
2013-06-05 11:30,6.40,1.62
2013-06-05 12:00,6.40,1.68
2013-06-05 12:30,6.40,1.55
2013-06-05 13:00,6.40,1.62
2013-06-05 13:30,6.40,1.66
2013-06-05 14:00,6.40,1.58
2013-06-05 14:30,6.40,1.57
2013-06-05 15:00,6.40,1.61
2013-06-05 15:30,6.40,1.52
2013-06-05 16:00,6.40,1.44
2013-06-05 16:30,6.40,1.59
2013-06-05 17:00,6.40,1.59
2013-06-05 17:30,6.40,1.45
2013-06-05 18:00,6.40,1.61
2013-06-05 18:30,6.40,1.57
2013-06-05 19:00,6.40,1.40
2013-06-05 19:30,6.40,1.46
2013-06-05 20:00,6.40,1.40
2013-06-05 20:30,6.40,1.50
2013-06-05 21:00,5.33,1.41
2013-06-05 21:30,6.40,1.42
2013-06-05 22:00,6.40,1.34
2013-06-05 22:30,6.40,1.44
2013-06-05 23:00,6.40,1.32
2013-06-05 23:30,6.40,1.35
2013-06-06 00:00,6.40,1.40
2013-06-06 00:30,6.40,1.35
2013-06-06 01:00,6.40,1.34
2013-06-06 01:30,6.40,1.32
2013-06-06 02:00,6.40,1.52
2013-06-06 02:30,6.40,1.29
2013-06-06 03:00,6.40,1.29
2013-06-06 03:30,6.40,1.29
2013-06-06 04:00,6.40,1.21
2013-06-06 04:30,6.40,1.36
2013-06-06 05:00,6.40,1.37
2013-06-06 05:30,6.40,1.29
2013-06-06 06:00,6.40,1.36
2013-06-06 06:30,6.40,1.26
2013-06-06 07:00,6.40,1.25
2013-06-06 07:30,6.40,1.25
2013-06-06 08:00,6.40,1.24
2013-06-06 08:30,6.40,1.30
2013-06-06 09:00,6.40,1.32
2013-06-06 09:30,6.40,1.28
2013-06-06 10:00,5.33,1.20
2013-06-06 10:30,6.40,1.25
2013-06-06 11:00,6.40,1.26
2013-06-06 11:30,5.33,1.30
2013-06-06 12:00,6.40,1.26
2013-06-06 12:30,6.40,1.15
2013-06-06 13:00,6.40,1.20
2013-06-06 13:30,6.40,1.31
2013-06-06 14:00,5.33,1.37
2013-06-06 14:30,6.40,1.44
2013-06-06 15:00,5.33,1.36
2013-06-06 15:30,4.57,1.41
2013-06-06 16:00,5.33,1.49
2013-06-06 16:30,5.33,1.47
2013-06-06 17:00,5.33,1.51
2013-06-06 17:30,5.33,1.59
2013-06-06 18:00,5.33,1.56
2013-06-06 18:30,5.33,1.60
2013-06-06 19:00,5.33,1.60
2013-06-06 19:30,5.33,1.46
2013-06-06 20:00,5.33,1.52
2013-06-06 20:30,5.33,1.55
2013-06-06 21:00,5.33,1.44
2013-06-06 21:30,4.57,1.44
2013-06-06 22:00,5.33,1.50
2013-06-06 22:30,5.33,1.54
2013-06-06 23:00,4.57,1.51
2013-06-06 23:30,5.33,1.41
2013-06-07 00:00,5.33,1.35
2013-06-07 00:30,6.40,1.36
2013-06-07 01:00,6.40,1.23
2013-06-07 01:30,6.40,1.24
2013-06-07 02:00,6.40,1.15
2013-06-07 02:30,5.33,1.16
2013-06-07 03:00,6.40,1.16
2013-06-07 03:30,6.40,1.20
2013-06-07 04:00,5.33,1.24
2013-06-07 04:30,4.57,1.13
2013-06-07 05:00,6.40,1.20
2013-06-07 05:30,5.33,1.08
2013-06-07 06:00,6.40,1.14
2013-06-07 06:30,4.57,1.04
2013-06-07 07:00,5.33,1.07
2013-06-07 07:30,5.33,1.05
2013-06-07 08:00,5.33,1.06
2013-06-07 08:30,6.40,0.96
2013-06-07 09:00,5.33,1.07
2013-06-07 09:30,5.33,0.99
2013-06-07 10:00,5.33,1.02
2013-06-07 10:30,5.33,1.09
2013-06-07 11:00,5.33,0.99
2013-06-07 11:30,5.33,1.05
2013-06-07 12:00,5.33,1.13
2013-06-07 12:30,5.33,1.12
2013-06-07 13:00,5.33,1.18
2013-06-07 13:30,5.33,1.15
2013-06-07 14:00,5.33,1.20
2013-06-07 14:30,5.33,1.01
2013-06-07 15:00,4.57,1.18
2013-06-07 15:30,5.33,1.28
2013-06-07 16:00,5.33,1.21
2013-06-07 16:30,4.57,1.37
2013-06-07 17:00,5.33,1.26
2013-06-07 17:30,5.33,1.31
2013-06-07 18:00,5.33,1.29
2013-06-07 18:30,5.33,1.38
2013-06-07 19:00,5.33,1.21
2013-06-07 19:30,5.33,1.37
2013-06-07 20:00,5.33,1.42
2013-06-07 20:30,4.57,1.34
2013-06-07 21:00,5.33,1.40
2013-06-07 21:30,5.33,1.28
2013-06-07 22:00,5.33,1.43
2013-06-07 22:30,5.33,1.51
2013-06-07 23:00,5.33,1.45
2013-06-07 23:30,5.33,1.52
2013-06-08 00:00,5.33,1.38
2013-06-08 00:30,5.33,1.33
2013-06-08 01:00,5.33,1.23
2013-06-08 01:30,6.40,1.19
2013-06-08 02:00,5.33,1.10
2013-06-08 02:30,5.33,1.07
2013-06-08 03:00,6.40,0.98
2013-06-08 03:30,6.40,0.98
2013-06-08 04:00,5.33,1.06
2013-06-08 04:30,6.40,1.03
2013-06-08 05:00,5.33,1.03
2013-06-08 05:30,6.40,1.05
2013-06-08 06:00,6.40,1.00
2013-06-08 06:30,4.57,1.05
2013-06-08 07:00,5.33,0.99
2013-06-08 07:30,5.33,0.95
2013-06-08 08:00,5.33,1.05
2013-06-08 08:30,5.33,1.11
2013-06-08 09:00,4.57,0.98
2013-06-08 09:30,5.33,1.07
2013-06-08 10:00,5.33,1.09
2013-06-08 10:30,4.57,1.15
2013-06-08 11:00,5.33,1.12
2013-06-08 11:30,5.33,1.20
2013-06-08 12:00,5.33,1.16
2013-06-08 12:30,5.33,1.18
2013-06-08 13:00,5.33,1.11
2013-06-08 13:30,5.33,1.16
2013-06-08 14:00,5.33,1.19
2013-06-08 14:30,5.33,1.16
2013-06-08 15:00,5.33,1.19
2013-06-08 15:30,5.33,1.24
2013-06-08 16:00,5.33,1.09
2013-06-08 16:30,5.33,1.20
2013-06-08 17:00,5.33,1.19
2013-06-08 17:30,5.33,1.15
2013-06-08 18:00,5.33,1.14
2013-06-08 18:30,5.33,1.22
2013-06-08 19:00,4.57,1.24
2013-06-08 19:30,4.57,1.16
2013-06-08 20:00,4.57,1.26
2013-06-08 20:30,5.33,1.16
2013-06-08 21:00,5.33,1.06
2013-06-08 21:30,4.00,1.12
2013-06-08 22:00,5.33,1.11
2013-06-08 22:30,4.57,1.02
2013-06-08 23:00,4.00,1.01
2013-06-08 23:30,5.33,0.94
2013-06-09 00:00,5.33,0.93
2013-06-09 00:30,5.33,0.89
2013-06-09 01:00,5.33,0.90
2013-06-09 01:30,5.33,0.82
2013-06-09 02:00,4.00,0.81
2013-06-09 02:30,5.33,0.75
2013-06-09 03:00,5.33,0.72
2013-06-09 03:30,5.33,0.73
2013-06-09 04:00,3.56,0.67
2013-06-09 04:30,5.33,0.79
2013-06-09 05:00,3.56,0.67
2013-06-09 05:30,4.00,0.81
2013-06-09 06:00,3.56,0.78
2013-06-09 06:30,3.56,0.85
2013-06-09 07:00,4.00,0.85
2013-06-09 07:30,4.00,0.87
2013-06-09 08:00,4.00,0.99
2013-06-09 08:30,4.00,1.03
2013-06-09 09:00,4.57,1.04
2013-06-09 09:30,4.57,0.97
2013-06-09 10:00,4.57,1.02
2013-06-09 10:30,4.57,0.99
2013-06-09 11:00,4.57,0.99
2013-06-09 11:30,4.57,0.98
2013-06-09 12:00,4.57,0.94
2013-06-09 12:30,5.33,1.02
2013-06-09 13:00,5.33,1.02
2013-06-09 13:30,4.57,0.98
2013-06-09 14:00,4.57,1.06
2013-06-09 14:30,4.57,1.04
2013-06-09 15:00,4.57,1.16
2013-06-09 15:30,4.57,1.20
2013-06-09 16:00,5.33,1.12
2013-06-09 16:30,4.57,1.29
2013-06-09 17:00,4.57,1.25
2013-06-09 17:30,5.33,1.25
2013-06-09 18:00,4.57,1.23
2013-06-09 18:30,5.33,1.23
2013-06-09 19:00,4.57,1.24
2013-06-09 19:30,4.57,1.39
2013-06-09 20:00,5.33,1.49
2013-06-09 20:30,5.33,1.45
2013-06-09 21:00,5.33,1.34
2013-06-09 21:30,5.33,1.51
2013-06-09 22:00,5.33,1.40
2013-06-09 22:30,6.40,1.49
2013-06-09 23:00,6.40,1.44
2013-06-09 23:30,5.33,1.34
2013-06-10 00:00,6.40,1.47
2013-06-10 00:30,6.40,1.52
2013-06-10 01:00,6.40,1.36
2013-06-10 01:30,6.40,1.40
2013-06-10 02:00,6.40,1.49
2013-06-10 02:30,6.40,1.45
2013-06-10 03:00,6.40,1.53
2013-06-10 03:30,6.40,1.44
2013-06-10 04:00,5.33,1.40
2013-06-10 04:30,6.40,1.51
2013-06-10 05:00,5.33,1.48
2013-06-10 05:30,5.33,1.53
2013-06-10 06:00,6.40,1.42
2013-06-10 06:30,6.40,1.48
2013-06-10 07:00,6.40,1.46
2013-06-10 07:30,6.40,1.46
2013-06-10 08:00,6.40,1.38
2013-06-10 08:30,6.40,1.37
2013-06-10 09:00,6.40,1.43
2013-06-10 09:30,6.40,1.40
2013-06-10 10:00,6.40,1.43
2013-06-10 10:30,6.40,1.47
2013-06-10 11:00,6.40,1.39
2013-06-10 11:30,6.40,1.42
2013-06-10 12:00,6.40,1.40
2013-06-10 12:30,6.40,1.27
2013-06-10 13:00,6.40,1.42
2013-06-10 13:30,6.40,1.44
2013-06-10 14:00,6.40,1.31
2013-06-10 14:30,6.40,1.47
2013-06-10 15:00,6.40,1.49
2013-06-10 15:30,5.33,1.51
2013-06-10 16:00,6.40,1.61
2013-06-10 16:30,6.40,1.63
2013-06-10 17:00,6.40,1.67
2013-06-10 17:30,6.40,1.74
2013-06-10 18:00,6.40,1.85
2013-06-10 18:30,6.40,1.58
2013-06-10 19:00,6.40,1.78
2013-06-10 19:30,6.40,1.63
2013-06-10 20:00,6.40,1.57
2013-06-10 20:30,6.40,1.81
2013-06-10 21:00,5.33,1.67
2013-06-10 21:30,6.40,1.61
2013-06-10 22:00,6.40,1.59
2013-06-10 22:30,6.40,1.57
2013-06-10 23:00,6.40,1.60
2013-06-10 23:30,6.40,1.63
2013-06-11 00:00,6.40,1.58
2013-06-11 00:30,6.40,1.71
2013-06-11 01:00,6.40,1.53
2013-06-11 01:30,6.40,1.49
2013-06-11 02:00,6.40,1.65
2013-06-11 02:30,6.40,1.55
2013-06-11 03:00,6.40,1.36
2013-06-11 03:30,6.40,1.48
2013-06-11 04:00,6.40,1.52
2013-06-11 04:30,6.40,1.55
2013-06-11 05:00,6.40,1.51
2013-06-11 05:30,6.40,1.57
2013-06-11 06:00,6.40,1.34
2013-06-11 06:30,6.40,1.54
2013-06-11 07:00,6.40,1.48
2013-06-11 07:30,6.40,1.50